Regional Weather Roundup
Issued by NWS

Home | Current Version | Previous Version | Text Only | Print | Product List | Glossary On
Versions: 1 2 3 4 5 6 7 8 9 10 11 12 13 14 15 16 17 18 19 20 21 22 23 24 25 26 27 28
000
ASPQ40 PGUM 211812
RWRPQ
WEATHER ROUNDUP FOR THE MARIANAS AND MICRONESIA
NATIONAL WEATHER SERVICE TIYAN GU
400 AM CHST TUE AUG 22 2017

GUZ001>004-211900-
MARIANA ISLANDS-

CITY           SKY/WX    TMP DP  RH WIND       PRES   REMARKS
GUAM AIRPORT   CLEAR     81  75  83 E7        29.86R
ANDERSEN AFB   PTCLDY    77  73  88 E7        29.91S
ROTA AIRPORT   NOT AVBL
TINIAN AP      NOT AVBL
SAIPAN AP      MOCLDY    84  75  74 E6        29.85R HX  92

$$

PMZ161-211900-
REPUBLIC OF PALAU-

CITY           SKY/WX    TMP DP  RH WIND       PRES   REMARKS
KOROR AP       MOCLDY    81  75  83 SE8       29.76F
KOROR WSO      CLOUDY    81  77  89 SE6       29.77F

$$

PMZ171>174-211900-
FEDERATED STATES OF MICRONESIA-

CITY           SKY/WX    TMP DP  RH WIND       PRES   REMARKS
YAP AIRPORT    CLOUDY    79  73  83 VRB6      29.78F
CHUUK AP       CLOUDY    82  79  89 VRB6      29.80R HX  93
POHNPEI AP     NOT AVBL
POHNPEI WSO    NOT AVBL
KOSRAE AP      NOT AVBL

$$

PMZ181-211900-
REPUBLIC OF THE MARSHALL ISLANDS-

CITY           SKY/WX    TMP DP  RH WIND       PRES   REMARKS
KWAJALEIN AP   PTCLDY    82  73  74 SE10      29.82R
MAJURO AP      NOT AVBL
MAJURO WSO     MOCLDY    82  75  78 S8        29.79S

$$





USA.gov is the U.S. government's official web portal to all federal, state and local government web resources and services.